Regional Weather Roundup
Issued by NWS

Home | Current Version | Previous Version | Text Only | Print | Product List | Glossary Off
Versions: 1 2 3 4 5 6 7 8 9 10 11 12 13 14 15 16 17 18 19 20 21 22 23 24 25 26 27 28 29 30 31 32 33 34 35 36 37 38 39 40 41 42 43 44 45 46 47 48 49 50

000
ASUS43 KLMK 290002
RWRKY
KENTUCKY REGIONAL WEATHER ROUNDUP
NATIONAL WEATHER SERVICE LOUISVILLE KY
800 PM EDT MON JUL 28 2014

NOTE "FAIR" INDICATES FEW OR NO CLOUDS BELOW 12,000 FEET
WITH NO SIGNIFICANT WEATHER AND/OR OBSTRUCTIONS TO VISIBILITY.

KYZ001>023-026-027-061>063-070>075-290100-
WESTERN AND SOUTH CENTRAL KENTUCKY

CITY           SKY/WX    TMP DP  RH WIND       PRES   REMARKS
PADUCAH        MOSUNNY   79  60  52 N12       30.03R
HENDERSON      PTSUNNY   73  55  53 N7        30.03R
OWENSBORO      MOSUNNY   75  57  53 N12       30.03R
HOPKINSVILLE   PTSUNNY   78  60  53 N12       30.01R
BOWLING GREEN  CLEAR     77  56  48 NW10G20   30.00S
GLASGOW        MOCLDY    76  58  53 NW8       29.99S
$$

KYZ024-025-028>034-038-045-046-053-290100-
NORTH CENTRAL KENTUCKY

CITY           SKY/WX    TMP DP  RH WIND       PRES   REMARKS
LOUISVILLE/SDF PTCLDY    75  58  55 N14       29.98F
LOUISVILLE/LOU PTCLDY    75  59  57 N9        29.99F
FORT KNOX      MOCLDY    74  61  65 NW7       29.99R
$$

KYZ035>037-039>044-047>052-055>060-089>105-290100-
NORTHEAST KENTUCKY

CITY           SKY/WX    TMP DP  RH WIND       PRES   REMARKS
LEXINGTON      LGT RAIN  71  58  63 NW9       29.99F
COVINGTON      MOCLDY    71  54  54 NW14      29.98S
FRANKFORT      CLEAR     71  57  61 NW6       29.99S
$$

KYZ054-064>069-076>088-106>120-290100-
SOUTHEAST KENTUCKY

CITY           SKY/WX    TMP DP  RH WIND       PRES   REMARKS
JACKSON        CLOUDY    67  58  72 NW6       29.99R
LONDON         PTCLDY    73  57  57 N8        30.00S
SOMERSET       PTCLDY    72  57  60 N9        30.01S
MIDDLESBORO    MOCLDY    72  59  65 NW6G16    29.99R
MONTICELLO     CLEAR     73  62  68 N6        30.01R
$$



USA.gov is the U.S. government's official web portal to all federal, state and local government web resources and services.